sat.trackr.live / text

‹ back to catalog

STARLINK-5462

NORAD 55674 · 2023-021AY

PAYLOAD ACTIVE UNKNOWN

§ Identity

Operator
Country
US
Launch date
2023-02-17
Launch site
AFWTR
Launch vehicle
Mass (kg)
RCS (m²)

Purposes: comms

External: N2YO · Heavens-Above · Gunter

§ Orbital elements

Epoch: 2026-05-24T21:36:14.904000Z

Period
96.11 min
Inclination
70.0011°
Eccentricity
0.0002730
Mean motion
14.98335606 rev/d
Perigee alt
570.1 km
Apogee alt
573.9 km
Semi-major
6,950.2 km
B*
2.0363e-4
RAAN
332.1590°
Arg perigee
268.8877°
Mean anomaly
91.1969°
Rev number
18,070

§ Raw data

STARLINK-54621 55674U 23021AY  26144.90017250  .00002338  00000+0  20363-3 0  99982 55674  70.0011 332.1590 0002730 268.8877  91.1969 14.98335606180705

JSON: /api/v1/satellites/55674 · /tle

For live sub-satellite position, see the globe view (requires WebGL).

§ Visibility from observer

Set your observer location to see the next 7 days of passes ≥ 10°. The values pass through the URL so the page stays shareable.

No JS? Fill the form by hand. The geolocation button needs JavaScript.